Бурустах

Россия / Республика Саха (Якутия)     64°25′13″N   144°42′36″E
темп.,
°C
ветер,
м/с
пор.,
м/с
влажн.,
%
обл.,
%
осадки,
мм/ч
давл.,
гПа
погр.,
м
1 марта, пн
пн123:00−34ссв0010050 0.0 102319
02:00−35зсз0010062 0.0 102219
05:00−35сз1110080 0.0 102219
08:00−36зсз1110096 0.0 102119
11:00−31з119798 0.0 102137
14:00−29зсз119088 0.0 1019171
17:00−30зсз119460 0.0 101919
20:00−35сз111000 0.0 102119
2 марта, вт
вт223:00−35сз111002 0.0 102119
02:00−36сз1110013 0.0 102219
05:00−37сз111007 0.0 102219
08:00−38сз0110030 0.0 102419
11:00−32з009054 0.0 102328
14:00−30юз108199 0.0 1022140
17:00−29ю1190100 0.0 102219
20:00−31ююв1188100 0.0 102319
3 марта, ср
ср323:00−30юв1187100 0.0 102319
02:00−29ю1198100 0.1 102219
05:00−30ююв11100100 0.1 102119
08:00−30ююв11100100 0.1 102019
11:00−27ююв1196100 0.2 1019132
14:00−26ююз0190100 0.0 1016241
17:00−27зсз119598 0.0 101419
20:00−32сз1110084 0.0 101419
4 марта, чт
чт423:00−33ссз229784 0.0 101219
02:00−33сз2288100 0.0 101019
05:00−33сз3388100 0.0 100921
08:00−34сз3391100 0.0 100740
11:00−33сз3487100 0.0 1005298
14:00−31сз4680100 0.0 1003593
17:00−31сз4786100 0.0 1003532
20:00−33ссз4493100 0.0 100458
5 марта, пт
пт523:00−33сз3396100 0.1 100575
02:00−32сз3398100 0.1 100544
05:00−33зсз2298100 0.2 100639
08:00−34зсз2297100 0.1 100740
11:00−33зсз2393100 0.1 1008197
14:00−32зсз3390100 0.0 1007257
17:00−31зсз2391100 0.1 1008243
20:00−34зсз2296100 0.0 100922